BTK55 WMKK-WIII

Flight info

Callsign BTK55
Flight time N/A
Altitude 37000
Route MITOS1D MITOS M630 BOBAG P501 ANITO B470 BUNIK
Aircraft A20N/M-SDE2E3FGHIRWXY/LB1

Departure

Time 2026-05-05 15:23
Airport Kuala Lumpur International Airport (WMKK)

Arrival

Time N/A
Airport Soekarno-Hatta International Airport (WIII)
Time Latitude Longitude Altitude Speed Heading
2026-05-05 14:39 2.75276 101.70662 74 ft 0 kts 326°
2026-05-05 15:12 2.75268 101.70668 75 ft 2 kts 326°
2026-05-05 15:13 2.75255 101.70676 75 ft 2 kts 326°
2026-05-05 15:13 2.75243 101.70685 74 ft 2 kts 326°
2026-05-05 15:13 2.75231 101.70693 75 ft 2 kts 326°
2026-05-05 15:13 2.75217 101.70699 75 ft 2 kts 358°
2026-05-05 15:14 2.75202 101.70697 75 ft 2 kts 28°
2026-05-05 15:14 2.75193 101.70690 75 ft 0 kts 52°
2026-05-05 15:14 2.75189 101.70684 75 ft 0 kts 56°
2026-05-05 15:14 2.75189 101.70683 75 ft 0 kts 56°
2026-05-05 15:16 2.75189 101.70685 74 ft 0 kts 56°
2026-05-05 15:16 2.75204 101.70705 74 ft 0 kts 56°
2026-05-05 15:17 2.75210 101.70715 75 ft 6 kts 56°
2026-05-05 15:17 2.75257 101.70783 74 ft 15 kts 56°
2026-05-05 15:17 2.75313 101.70867 74 ft 14 kts 56°
2026-05-05 15:17 2.75376 101.70959 74 ft 16 kts 55°
2026-05-05 15:18 2.75441 101.71055 74 ft 16 kts 56°
2026-05-05 15:18 2.75507 101.71153 74 ft 17 kts 56°
2026-05-05 15:18 2.75574 101.71252 74 ft 17 kts 56°
2026-05-05 15:18 2.75640 101.71349 74 ft 11 kts 56°
2026-05-05 15:19 2.75650 101.71423 74 ft 11 kts 123°
2026-05-05 15:19 2.75583 101.71474 74 ft 13 kts 147°
2026-05-05 15:19 2.75487 101.71537 74 ft 20 kts 146°
2026-05-05 15:19 2.75347 101.71632 74 ft 27 kts 146°
2026-05-05 15:20 2.75187 101.71740 75 ft 27 kts 146°
2026-05-05 15:20 2.75034 101.71843 74 ft 25 kts 146°
2026-05-05 15:20 2.74890 101.71939 74 ft 24 kts 146°
2026-05-05 15:20 2.74778 101.72015 75 ft 17 kts 137°
2026-05-05 15:21 2.74785 101.72116 74 ft 16 kts 57°
2026-05-05 15:21 2.74839 101.72181 74 ft 10 kts 30°
2026-05-05 15:21 2.74902 101.72166 74 ft 10 kts 324°
2026-05-05 15:21 2.74959 101.72125 74 ft 10 kts 324°
2026-05-05 15:22 2.75032 101.72076 74 ft 20 kts 326°
2026-05-05 15:22 2.75357 101.71858 75 ft 91 kts 326°
2026-05-05 15:22 2.76059 101.71388 75 ft 149 kts 326°
2026-05-05 15:22 2.77013 101.70742 353 ft 171 kts 325°
2026-05-05 15:23 2.77982 101.70091 884 ft 173 kts 325°
2026-05-05 15:23 2.78990 101.69415 1449 ft 175 kts 325°
2026-05-05 15:23 2.80035 101.68759 1968 ft 181 kts 331°
2026-05-05 15:23 2.81246 101.68248 2333 ft 198 kts 342°
2026-05-05 15:24 2.82637 101.67860 2714 ft 214 kts 342°
2026-05-05 15:24 2.84105 101.67390 3114 ft 231 kts 340°
2026-05-05 15:24 2.85707 101.66840 3455 ft 254 kts 340°
2026-05-05 15:24 2.87462 101.66217 3961 ft 271 kts 339°
2026-05-05 15:25 2.89291 101.65781 4667 ft 279 kts 359°
2026-05-05 15:25 2.91163 101.66196 5488 ft 283 kts 27°
2026-05-05 15:25 2.92659 101.67484 6310 ft 287 kts 56°
2026-05-05 15:25 2.93576 101.69285 7145 ft 290 kts 67°
2026-05-05 15:26 2.94363 101.71159 7934 ft 295 kts 68°
2026-05-05 15:26 2.94844 101.73074 8651 ft 300 kts 89°
2026-05-05 15:26 2.94532 101.74964 9355 ft 301 kts 115°
2026-05-05 15:26 2.93420 101.76609 10091 ft 301 kts 137°
2026-05-05 15:27 2.91830 101.78095 10750 ft 309 kts 140°
2026-05-05 15:27 2.90136 101.79609 11131 ft 328 kts 140°
2026-05-05 15:27 2.88328 101.81245 11493 ft 346 kts 139°
2026-05-05 15:27 2.86451 101.82970 11820 ft 364 kts 139°
2026-05-05 15:28 2.84532 101.84756 12297 ft 376 kts 138°
2026-05-05 15:28 2.82570 101.86594 13046 ft 379 kts 138°
2026-05-05 15:28 2.80643 101.88404 13787 ft 381 kts 138°
2026-05-05 15:28 2.78620 101.90305 14517 ft 384 kts 138°
2026-05-05 15:29 2.76606 101.92199 15223 ft 387 kts 138°
2026-05-05 15:29 2.74683 101.94007 15878 ft 390 kts 138°
2026-05-05 15:29 2.72658 101.95911 16550 ft 393 kts 138°
2026-05-05 15:29 2.70670 101.97781 17189 ft 395 kts 138°
2026-05-05 15:30 2.68659 101.99672 17810 ft 398 kts 138°
2026-05-05 15:30 2.66687 102.01527 18360 ft 402 kts 138°
2026-05-05 15:30 2.64753 102.03346 18906 ft 405 kts 138°
2026-05-05 15:30 2.62720 102.05256 19482 ft 407 kts 138°
2026-05-05 15:31 2.60600 102.07150 20039 ft 409 kts 145°
2026-05-05 15:31 2.58138 102.08533 20563 ft 409 kts 160°
2026-05-05 15:31 2.55314 102.09199 21116 ft 408 kts 176°
2026-05-05 15:31 2.52393 102.09305 21689 ft 409 kts 180°
2026-05-05 15:32 2.49508 102.09322 22177 ft 413 kts 180°
2026-05-05 15:32 2.46564 102.09345 22642 ft 416 kts 180°
2026-05-05 15:32 2.43791 102.09381 23067 ft 420 kts 180°
2026-05-05 15:32 2.40903 102.09428 23517 ft 422 kts 179°
2026-05-05 15:33 2.37920 102.09480 23969 ft 425 kts 179°
2026-05-05 15:33 2.35071 102.09533 24383 ft 427 kts 179°
2026-05-05 15:33 2.32079 102.09589 24797 ft 430 kts 179°
2026-05-05 15:33 2.29161 102.09643 25186 ft 432 kts 179°
2026-05-05 15:34 2.26144 102.09700 25574 ft 435 kts 179°
2026-05-05 15:34 2.23180 102.09757 25939 ft 437 kts 179°
2026-05-05 15:34 2.20139 102.09815 26302 ft 439 kts 179°
2026-05-05 15:34 2.17099 102.09872 26645 ft 442 kts 179°
2026-05-05 15:35 2.14047 102.09931 26974 ft 444 kts 179°
2026-05-05 15:35 2.11036 102.09989 27288 ft 446 kts 179°
2026-05-05 15:35 2.07959 102.10048 27594 ft 448 kts 179°
2026-05-05 15:35 2.04878 102.10107 27887 ft 450 kts 179°
2026-05-05 15:36 2.01781 102.10246 28150 ft 452 kts 171°
2026-05-05 15:36 1.98836 102.11124 28363 ft 455 kts 154°
2026-05-05 15:36 1.96200 102.12830 28709 ft 454 kts 139°
2026-05-05 15:36 1.94110 102.15141 29093 ft 454 kts 126°
2026-05-05 15:37 1.92356 102.17737 29522 ft 452 kts 124°
2026-05-05 15:37 1.90707 102.20272 29891 ft 451 kts 123°
2026-05-05 15:37 1.89027 102.22848 30248 ft 450 kts 124°
2026-05-05 15:37 1.87340 102.25396 30604 ft 449 kts 124°
2026-05-05 15:38 1.85586 102.28027 30970 ft 448 kts 124°
2026-05-05 15:38 1.83852 102.30621 31325 ft 447 kts 124°
2026-05-05 15:38 1.82153 102.33160 31659 ft 446 kts 124°
2026-05-05 15:38 1.80418 102.35754 31978 ft 446 kts 124°
2026-05-05 15:39 1.78692 102.38334 32287 ft 445 kts 124°
2026-05-05 15:39 1.76980 102.40893 32588 ft 444 kts 124°
2026-05-05 15:39 1.75273 102.43445 32881 ft 443 kts 124°
2026-05-05 15:39 1.73588 102.45963 33162 ft 443 kts 124°
2026-05-05 15:40 1.71923 102.48452 33429 ft 442 kts 124°
2026-05-05 15:40 1.70251 102.50950 33689 ft 441 kts 124°
2026-05-05 15:40 1.68566 102.53468 33941 ft 441 kts 123°
2026-05-05 15:40 1.66857 102.56023 34186 ft 440 kts 123°
2026-05-05 15:41 1.65223 102.58466 34415 ft 440 kts 123°
2026-05-05 15:41 1.63909 102.60429 34596 ft 439 kts 123°
2026-05-05 15:41 1.62245 102.62915 34818 ft 439 kts 123°
2026-05-05 15:41 1.61202 102.64475 34952 ft 438 kts 123°